Location: Newark
(35.9667°S, 26.6167°E)
Time: 16:28:52
(UTC+00:00)

Envisat - Visible Passes

Search period start: 15 October 2019 00:00
Search period end: 25 October 2019 00:00
Orbit: 764 x 766 km, 98.1° (Epoch: 15 October)

Date Brightness Start Highest point End Pass type
(mag) Time Alt. Az. Time Alt. Az. Time Alt. Az.
15 Oct 3.0 16:54:08 10° SSE 16:59:14 61° E 17:04:17 10° N visible
15 Oct 6.1 18:34:57 10° SSW 18:37:40 15° WSW 18:40:23 10° W visible
16 Oct 4.9 17:56:46 10° S 18:01:18 32° WSW 18:05:47 10° NW visible
17 Oct 3.3 17:19:34 10° S 17:24:43 74° WSW 17:29:48 10° NNW visible
18 Oct 6.5 02:56:01 10° E 02:57:51 12° ESE 02:59:40 10° SE visible
18 Oct 5.8 18:23:05 10° SSW 18:26:33 18° WSW 18:29:59 10° WNW visible
19 Oct 4.5 17:45:19 10° S 17:50:07 40° WSW 17:54:51 10° NW visible
20 Oct 3.0 17:08:18 10° SSE 17:13:28 87° E 17:18:34 10° NNW visible
20 Oct 6.5 18:51:13 10° SW 18:51:41 10° WSW 18:52:10 10° WSW visible
21 Oct 5.5 18:11:25 10° SSW 18:15:24 23° WSW 18:19:22 10° WNW visible
22 Oct 4.0 17:33:55 10° S 17:38:54 52° WSW 17:43:50 10° NNW visible
23 Oct 3.0 16:57:05 10° SSE 17:02:13 68° ENE 17:07:17 10° N visible
23 Oct 6.2 18:38:15 10° SW 18:40:35 13° WSW 18:42:56 10° W visible
24 Oct 5.1 17:59:51 10° S 18:04:14 29° WSW 18:08:36 10° NW visible
